Regional Weather Roundup
Issued by NWS Wilmington, NC

Home | Current Version | Previous Version | Text Only | Print | Product List | Glossary On
Versions: 1 2 3 4 5 6 7 8 9 10 11 12 13 14 15 16 17 18 19 20 21 22 23 24 25 26 27 28 29 30 31 32 33 34 35 36 37 38 39 40 41 42 43 44 45 46 47 48 49
677
ASUS42 KILM 291713
RWRILM
RWRILM
REGIONAL HOURLY WEATHER ROUNDUP
NATIONAL WEATHER SERVICE WILMINGTON NC
100 PM EDT SUN MAY 29 2016

NOTE: "FAIR" INDICATES FEW OR NO CLOUDS BELOW 12,000 FEET WITH NO
SIGNIFICANT WEATHER AND/OR OBSTRUCTIONS TO VISIBILITY.

...............WFO WILMINGTON COUNTY WARNING AREA...............

......COASTAL NC AND SC COUNTIES......

CITY           SKY/WX    TMP DP  RH WIND       PRES   REMARKS
WILMINGTON     LGT RAIN  77  72  84 SE12      30.04S
N MYRTLE BEACH MOSUNNY   80  73  79 SE9       29.99F
MYRTLE BEACH   LGT RAIN  79  68  69 SE12      30.00S FOG

......INLAND NC AND SC COUNTIES.......

CITY           SKY/WX    TMP DP  RH WIND       PRES   REMARKS
LUMBERTON      TSTM      77  74  90 SE6       30.01R FOG
ELIZABETHTOWN  PTSUNNY   84  71  65 SE10G16   30.01F
WHITEVILLE     CLOUDY    75  71  88 SE3       30.01F
FLORENCE       PTSUNNY   84  73  69 NE13      29.97F HX  90
DARLINGTON     CLOUDY    78  72  81 N15G21    30.00F
KINGSTREE      HVY RAIN  79  72  78 E8        29.93F
HARTSVILLE     CLOUDY    73  70  88 NE13G21   30.00F
BENNETTSVILLE  CLOUDY    81  73  78 N15G22    30.00F
CONWAY         DRIZZLE   81  72  74 SE12      29.97F
GEORGETOWN     CLOUDY    77  72  83 SE15      29.95F
MARION         CLOUDY    79  72  78 E7        29.98F

....................REST OF NORTH CAROLINA......................

.........EASTERN NC.........

CITY           SKY/WX    TMP DP  RH WIND       PRES   REMARKS
CAPE HATTERAS  SUNNY     85  74  69 S12       30.11S HX  92
JACKSONVILLE   PTSUNNY   83  74  74 SE13G20   30.05S
MOREHEAD CITY  MOSUNNY   81  74  79 S15G24    30.08S
KENANSVILLE    CLOUDY    80  73  76 E3        30.05F
NEW BERN       PTSUNNY   83  71  67 S14G20    30.07F
ELIZABETH CITY RAIN      74  72  93 SE5       30.11F FOG

.........CENTRAL NC.........

CITY           SKY/WX    TMP DP  RH WIND       PRES   REMARKS
RALEIGH DURHAM CLOUDY    71  69  93 N7        30.09S
ROCKY MOUNT    LGT RAIN  74  73  97 VRB5      30.08F FOG
ROANOKE RAPIDS NOT AVBL
FAYETTEVILLE   PTSUNNY   82  72  71 NE9       30.02F
HOFFMAN        CLOUDY    73  70  88 N12       30.04F

.........WESTERN NC.........

CITY           SKY/WX    TMP DP  RH WIND       PRES   REMARKS
CHARLOTTE      CLOUDY    72  63  73 N13       30.11F
GREENSBORO     CLOUDY    72  66  83 N7        30.13S
HICKORY        NOT AVBL
BOONE          NOT AVBL
ASHEVILLE      NOT AVBL

.....................REST OF SOUTH CAROLINA.....................

.........EASTERN SC.........

CITY           SKY/WX    TMP DP  RH WIND       PRES   REMARKS
CHARLESTON     LGT RAIN  75  70  84 S13       29.89S
BEAUFORT MCAS  CLOUDY    71  67  87 W16G26    29.94F
HILTON HEAD    CLOUDY    70  66  88 W12G26    29.97F

.........CENTRAL SC.........

CITY           SKY/WX    TMP DP  RH WIND       PRES   REMARKS
COLUMBIA       LGT RAIN  68  64  87 N12G23    30.00F
ORANGEBURG     LGT RAIN  70  68  93 N13G26    29.93F
SUMTER SHAW    CLOUDY    74  70  87 N17G23    29.92F

.........WESTERN SC.........

CITY           SKY/WX    TMP DP  RH WIND       PRES   REMARKS
GREENVILLE     NOT AVBL
ROCK HILL      CLOUDY    72  67  84 N12       30.10F
ANDERSON       PTSUNNY   73  63  70 NE7       30.15S
CLEMSON        NOT AVBL
GREENWOOD      LGT RAIN  69  64  84 NW7       30.13F


...................COASTAL AND OFFSHORE REPORTS..................

................LOCAL PIERS AND NC RESERVE................


STATION/POSITION TIME  SKY/WX   TEMP    WIND        PRES    VSBY
                                AIR SEA DIR/SP/G
                 (UTC)          (F)     (DEG/KT/KT) (MB)    (MI)
JOHNY MRCER PIER 1600            78 78  120/ 11/ 13 1016.5S
NC RESRV MASNBRO NOT AVBL
OCEAN CREST PIER NOT AVBL
SPRINGMAID  PIER 1600            76 76   60/ 12/ 14 1015.1S


................COASTAL AND OFFSHORE BUOYS................


STATION/POSITION TIME  SKY/WX   TEMP    WIND        PRES    VSBY
                                AIR SEA DIR/SP/G
                 (UTC)          (F)     (DEG/KT/KT) (MB)    (MI)
DIMNDSHOAL 41025 1650            79 75  160/ 16/ 17 1019.1F
WVE H/P(F/S)=  5/ 7 SWL H/P/D(F/S/D)=  2/140/ 8

CAPE LOOKOUT     1700            77     150/ 13/ 15 1018.2F
ONSLOW BAY 41036 NOT AVBL
ONSLOW BAY 41064 1608            78 75  160/ 16/ 21 1018.1R
ONSLOW BAY 41159 1625               75                N/A
WVE H/P(F/S)=  7/ 7

5SE WRITBC 41038 1608            77 75  140/ 10/ 14 1017.9F
MASNBO INL 41110 1606               75                N/A
WVE H/P(F/S)=  5/ 7

WILM HARBR 41108 1626               75                N/A
WVE H/P(F/S)=  5/ 6

27SE WRITB 41037 1608            79 76  140/ 14/ 19 1016.7R
FRYING PAN 41013 1600            79 78  150/ 16/ 19 1016.3R
SUNST NRSH 41024 1608            75 76  140/ 16/ 21 1015.4F
CAPRS NRSH 41029 1608            73 76  190/ 14/ 17 1013.3R
EDISTO     41004 1650            74 77  200/ 19/ 23 1013.8S
WVE H/P(F/S)=  6/ 8 SWL H/P/D(F/S/D)=  3/ 8



..........OFFSHORE BUOYS BEYOND 100 NM OFFSHORE...........
.....IN A TRIANGLE---HAT TO BERMUDA TO BAHAMAS TO HAT.....


STATION/POSITION TIME  SKY/WX   TEMP    WIND        PRES    VSBY
                                AIR SEA DIR/SP/G
                 (UTC)          (F)     (DEG/KT/KT) (MB)    (MI)
150E HAT   41001 NOT AVBL
W BERMUDA  41048 1650            76 76  130/ 14/ 16 1023.0F
WVE H/P(F/S)=  4/ 8 SWL H/P/D(F/S/D)=  3/120/ 8

ATLANTIC S 41049 1650            77 78   70/ 14/ 17 1022.7F
WVE H/P(F/S)=  4/ 8 SWL H/P/D(F/S/D)=  2/100/ 8

E BAHAMAS  41046 1600            81 81  110/ 16/ 19 1018.6F
NE BAHAMAS 41047 1600            79 80  120/ 16/ 19 1019.0F
120E CANVRL41010 1620            79 79  300/  6/  8 1018.8R

END




USA.gov is the U.S. government's official web portal to all federal, state and local government web resources and services.